K3GM Weather Reports


Display with metric or nautical units.
time (UTC)temp
F
wind
direction
speed
MPH
gust
MPH
rain 1hr
in
rain 24hr
in
rain mn
in
humidity
%
barometer
mb
20210618190045 84 0 0.0 2.0 0.00 0.00 0.00 31 1015.5
20210618184531 84 0 0.0 6.0 0.00 0.00 0.00 34 1015.6
20210618183038 84 0 0.0 6.0 0.00 0.00 0.00 31 1015.6
20210618181538 84 0 0.0 4.0 0.00 0.00 0.00 35 1015.7
20210618180027 83 0 0.0 4.0 0.00 0.00 0.00 39 1016.0
20210618174537 83 0 0.0 8.0 0.00 0.00 0.00 36 1016.1
20210618173115 83 194 0.0 5.0 0.00 0.00 0.00 36 1016.2
20210618171618 83 0 0.0 8.0 0.00 0.00 0.00 38 1016.6
20210618170108 82 0 0.0 7.0 0.00 0.00 0.00 36 1016.7
20210618164534 82 0 0.0 2.0 0.00 0.00 0.00 36 1016.8
20210618163034 82 0 0.0 8.0 0.00 0.00 0.00 34 1017.0
20210618161535 81 0 0.0 3.0 0.00 0.00 0.00 39 1017.1
20210618160044 81 0 0.0 3.0 0.00 0.00 0.00 36 1017.1
20210618154612 81 0 0.0 2.0 0.00 0.00 0.00 36 1017.1
20210618153027 81 0 0.0 2.0 0.00 0.00 0.00 40 1017.1
20210618151527 80 0 0.0 1.0 0.00 0.00 0.00 40 1017.2
20210618150047 79 0 0.0 2.0 0.00 0.00 0.00 40 1017.3
20210618144523 79 0 0.0 2.0 0.00 0.00 0.00 43 1017.4
20210618143023 78 0 0.0 1.0 0.00 0.00 0.00 51 1017.5
20210618141628 77 0 0.0 2.0 0.00 0.00 0.00 43 1017.7
20210618140024 76 0 0.0 1.0 0.00 0.00 0.00 48 1017.9
20210618134530 75 0 0.0 0.0 0.00 0.00 0.00 48 1018.0
20210618133042 74 0 0.0 2.0 0.00 0.00 0.00 50 1017.8
20210618131543 74 0 0.0 2.0 0.00 0.00 0.00 52 1017.7
20210618130024 72 0 0.0 0.0 0.00 0.00 0.00 54 1017.7
20210618124610 71 0 0.0 0.0 0.00 0.00 0.00 63 1017.5
20210618123109 70 0 0.0 1.0 0.00 0.00 0.00 61 1017.7
20210618121556 69 0 0.0 2.0 0.00 0.00 0.00 70 1017.6
20210618120041 67 0 0.0 2.0 0.00 0.00 0.00 77 1017.9
20210618114554 65 0 0.0 2.0 0.00 0.00 0.00 73 1018.2
20210618113040 63 0 0.0 0.0 0.00 0.00 0.00 82 1018.4
20210618111541 61 0 0.0 0.0 0.00 0.00 0.00 85 1018.3
20210618110059 59 0 0.0 0.0 0.00 0.00 0.00 88 1018.4
20210618104542 58 0 0.0 0.0 0.00 0.00 0.00 89 1018.4
20210618103058 57 0 0.0 0.0 0.00 0.00 0.00 90 1018.5
20210618101531 56 0 0.0 0.0 0.00 0.00 0.00 88 1018.5
20210618100027 56 0 0.0 0.0 0.00 0.00 0.00 88 1018.5
20210618094527 56 0 0.0 0.0 0.00 0.00 0.00 87 1018.5
20210618093039 56 0 0.0 0.0 0.00 0.00 0.00 86 1018.4
20210618091538 56 0 0.0 0.0 0.00 0.00 0.00 86 1018.5
20210618090056 57 0 0.0 0.0 0.00 0.00 0.00 84 1018.3
20210618084527 57 0 0.0 0.0 0.00 0.00 0.00 83 1018.4
20210618083021 57 0 0.0 0.0 0.00 0.00 0.00 83 1018.1
20210618081538 57 0 0.0 0.0 0.00 0.00 0.00 82 1017.9
20210618080024 58 0 0.0 0.0 0.00 0.00 0.00 82 1017.9
20210618074522 58 0 0.0 0.0 0.00 0.00 0.00 81 1017.7
20210618073029 58 0 0.0 0.0 0.00 0.00 0.00 80 1017.8
20210618071518 58 0 0.0 0.0 0.00 0.00 0.00 80 1018.0
20210618070033 58 0 0.0 0.0 0.00 0.00 0.00 73 1018.0
20210618064535 58 0 0.0 0.0 0.00 0.00 0.00 78 1017.9
20210618063030 58 0 0.0 0.0 0.00 0.00 0.00 76 1017.9
20210618061528 59 0 0.0 0.0 0.00 0.00 0.00 75 1018.0
20210618060030 59 0 0.0 0.0 0.00 0.00 0.00 74 1018.0
20210618054618 59 0 0.0 0.0 0.00 0.00 0.00 66 1018.0
20210618053116 59 0 0.0 0.0 0.00 0.00 0.00 72 1018.0
20210618051543 60 0 0.0 0.0 0.00 0.00 0.00 71 1017.8
20210618050124 60 0 0.0 0.0 0.00 0.00 0.00 69 1017.9
20210618044527 61 0 0.0 0.0 0.00 0.00 0.00 66 1017.7
20210618043029 61 0 0.0 0.0 0.00 0.00 0.00 64 1017.6
20210618041600 62 0 0.0 0.0 0.00 0.00 0.00 63 1017.6
20210618040042 62 0 0.0 0.0 0.00 0.00 0.00 61 1017.6
20210618034525 62 0 0.0 0.0 0.00 0.00 0.00 62 1017.5
20210618033036 63 0 0.0 0.0 0.00 0.00 0.00 59 1017.6
20210618031606 64 0 0.0 0.0 0.00 0.00 0.00 59 1017.5
20210618030033 64 0 0.0 0.0 0.00 0.00 0.00 57 1017.6
20210618024553 65 0 0.0 0.0 0.00 0.00 0.00 48 1017.6
20210618023049 66 0 0.0 0.0 0.00 0.00 0.00 47 1017.5
20210618021527 66 0 0.0 0.0 0.00 0.00 0.00 52 1017.5
20210618020104 66 0 0.0 0.0 0.00 0.00 0.00 49 1017.4
20210618014611 66 0 0.0 0.0 0.00 0.00 0.00 47 1017.2
20210618013047 66 0 0.0 0.0 0.00 0.00 0.00 40 1016.9
20210618011540 67 0 0.0 0.0 0.00 0.00 0.00 45 1016.8
20210618010146 68 0 0.0 0.0 0.00 0.00 0.00 44 1016.4
20210618004553 68 0 0.0 0.0 0.00 0.00 0.00 43 1016.4
20210618003029 69 0 0.0 0.0 0.00 0.00 0.00 43 1016.3
20210618001520 70 0 0.0 0.0 0.00 0.00 0.00 41 1016.3
20210618000024 71 0 0.0 0.0 0.00 0.00 0.00 39 1016.2
20210617234601 72 0 0.0 3.0 0.00 0.00 0.00 32 1016.1
20210617233027 72 0 0.0 1.0 0.00 0.00 0.00 32 1016.2
20210617231549 73 0 0.0 3.0 0.00 0.00 0.00 37 1016.0
20210617230047 73 0 0.0 3.0 0.00 0.00 0.00 32 1015.8
20210617224608 74 0 0.0 4.0 0.00 0.00 0.00 30 1015.7
20210617223028 74 5 2.0 7.0 0.00 0.00 0.00 27 1015.7
20210617221535 74 0 0.0 6.0 0.00 0.00 0.00 30 1015.6
20210617220049 75 352 2.0 11.0 0.00 0.00 0.00 36 1015.6
20210617214527 75 49 0.0 3.0 0.00 0.00 0.00 37 1015.7
20210617213116 75 53 1.0 7.0 0.00 0.00 0.00 30 1015.6
20210617211557 75 0 1.0 6.0 0.00 0.00 0.00 30 1015.7
20210617210024 76 0 0.0 4.0 0.00 0.00 0.00 38 1015.6
20210617204518 76 0 0.0 6.0 0.00 0.00 0.00 28 1015.6
20210617203031 77 0 0.0 2.0 0.00 0.00 0.00 32 1015.6
20210617201553 77 0 0.0 6.0 0.00 0.00 0.00 35 1015.6
20210617200043 77 0 1.0 11.0 0.00 0.00 0.00 28 1015.5
20210617194524 77 0 1.0 5.0 0.00 0.00 0.00 34 1015.6
20210617193039 77 0 1.0 4.0 0.00 0.00 0.00 33 1015.8
20210617191549 77 0 0.0 6.0 0.00 0.00 0.00 30 1015.7